SCP
0 0 -0 -0 0 0 0 0 0 0 0 0 0 0 0 0 0 0 0 0 0 0
0 0 -0 -0 -0 -0 -0 0 0 0 0 0 0 0 0 0 0 0 0 0 0 0
-0 0 -0 -0 -0 -0 -0 -0 0 0 0 0 0 0 0 0 0 0 0 0 0 0
-0 0 0 -0 -0 -0 -0 0 0 0 0 0 0 0 0 0 0 0 0 0 0 0
-0 0 0 -0 -0 -0 -0 0 0 0 0 0 0 0 0 0 0 0 0 0 0 0
0 0 0 -0 -0 -0 -0 -0 0 0 0 0 0 0 0 0 0 0 0 0 0 0
0 0 0 0 -0 -0 -0 -0 -0 0 0 0 0 0 0 0 0 0 0 0 0 0
0 0 0 0 0 0 0 0 -0 -0 0 0 0 0 0 0 0 0 0 0 0 0
0 0 0 0 0 0 0 0 0 0 0 0 0 0 0 0 0 0 0 0 0 0
0 0 0 0 0 0 0 0 0 0 0 0 0 0 0 0 0 0 0 0 0 0
0 0 0 0 0 0 0 0 0 0 1 1 1 0 0 0 0 0 0 0 0 0
1 1 1 1 1 1 1 1 1 1 2 0 0 0 0 0 0 0 0 0 0 0
2 1 1 1 1 2 2 2 2 1 0 0 0 0 0 0 0 0 0 0 0 0
3 2 2 3 3 2 1 1 0 0 0 0 0 0 0 0 0 0 0 0 0 0
Wind_Speed_500mb
52 59 61 52 50 46 45 36 33 30 21 16 15 14 19 23 23 24 23 18 14 16
52 59 61 54 45 45 44 38 30 29 24 27 25 26 26 26 25 24 25 25 23 22
50 55 58 55 48 49 43 40 33 29 29 29 33 34 34 27 24 27 29 29 29 29
45 52 54 62 56 51 46 45 39 38 35 34 35 36 36 36 30 28 29 32 34 34
42 50 58 59 64 58 53 55 51 51 53 51 46 38 42 41 38 36 36 35 35 34
48 50 57 63 64 67 64 61 60 62 61 58 55 51 49 48 49 50 49 46 42 41
47 52 53 56 63 67 68 68 67 67 67 65 62 60 58 55 55 57 57 51 47 44
43 47 50 53 54 56 61 65 66 64 63 62 64 62 59 54 53 50 48 46 44 43
45 45 50 50 50 50 52 54 54 53 56 57 56 53 52 52 51 48 46 48 50 48
48 47 49 49 51 51 52 52 55 52 51 52 53 52 53 49 49 50 49 51 54 59
53 50 49 49 54 56 57 57 58 59 60 59 58 53 55 53 55 57 53 58 57 57
59 56 54 55 54 54 57 59 63 65 64 65 63 48 64 62 59 60 58 61 65 64
60 63 62 57 56 53 55 58 60 60 65 62 48 56 19 39 60 64 52 53 57 61
67 66 63 59 58 55 58 58 57 55 57 56 50 33 35 39 64 56 48 50 54 55
Wind_Direction_500mb
216 213 214 213 211 224 221 213 210 216 226 227 234 243 249 255 254 252 264 252 257 282
214 212 212 211 217 216 213 214 212 222 236 244 249 246 258 256 251 259 265 265 267 274
207 208 212 211 217 211 216 221 222 227 236 251 244 237 251 254 253 259 265 266 266 270
215 210 212 216 217 212 215 221 227 230 230 235 240 234 244 247 259 261 265 263 267 265
221 216 216 215 213 214 217 220 227 236 241 242 250 248 251 256 261 266 271 271 269 270
222 221 220 220 218 220 223 226 231 237 243 249 252 260 262 265 263 268 271 272 268 270
226 225 226 225 225 227 229 233 237 241 247 252 256 260 260 262 261 263 265 265 267 269
229 228 228 230 230 232 236 239 243 246 248 251 254 256 257 255 258 259 261 264 265 266
228 228 227 228 231 233 236 239 243 245 247 249 251 255 257 256 257 260 264 267 271 271
229 230 230 230 232 236 236 238 240 245 248 251 253 257 262 262 262 263 267 273 280 272
231 234 236 238 240 240 242 245 248 251 255 259 264 265 266 266 265 264 267 264 278 276
237 239 240 243 247 250 252 255 257 262 265 262 265 271 275 273 271 268 268 270 274 277
245 246 247 251 252 258 259 263 263 261 263 264 261 263 272 270 277 276 270 272 278 281
243 247 250 249 248 250 254 255 259 262 263 265 256 257 248 249 269 270 274 279 283 290
Wind_Speed_850mb
52 59 61 52 50 46 45 36 33 30 21 16 15 14 19 23 23 24 23 18 14 16
52 59 61 54 45 45 44 38 30 29 24 27 25 26 26 26 25 24 25 25 23 22
50 55 58 55 48 49 43 40 33 29 29 29 33 34 34 27 24 27 29 29 29 29
45 52 54 62 56 51 46 45 39 38 35 34 35 36 36 36 30 28 29 32 34 34
42 50 58 59 64 58 53 55 51 51 53 51 46 38 42 41 38 36 36 35 35 34
48 50 57 63 64 67 64 61 60 62 61 58 55 51 49 48 49 50 49 46 42 41
47 52 53 56 63 67 68 68 67 67 67 65 62 60 58 55 55 57 57 51 47 44
43 47 50 53 54 56 61 65 66 64 63 62 64 62 59 54 53 50 48 46 44 43
45 45 50 50 50 50 52 54 54 53 56 57 56 53 52 52 51 48 46 48 50 48
48 47 49 49 51 51 52 52 55 52 51 52 53 52 53 49 49 50 49 51 54 59
53 50 49 49 54 56 57 57 58 59 60 59 58 53 55 53 55 57 53 58 57 57
59 56 54 55 54 54 57 59 63 65 64 65 63 48 64 62 59 60 58 61 65 64
60 63 62 57 56 53 55 58 60 60 65 62 48 56 19 39 60 64 52 53 57 61
67 66 63 59 58 55 58 58 57 55 57 56 50 33 35 39 64 56 48 50 54 55
Wind_Direction_850mb
216 213 214 213 211 224 221 213 210 216 226 227 234 243 249 255 254 252 264 252 257 282
214 212 212 211 217 216 213 214 212 222 236 244 249 246 258 256 251 259 265 265 267 274
207 208 212 211 217 211 216 221 222 227 236 251 244 237 251 254 253 259 265 266 266 270
215 210 212 216 217 212 215 221 227 230 230 235 240 234 244 247 259 261 265 263 267 265
221 216 216 215 213 214 217 220 227 236 241 242 250 248 251 256 261 266 271 271 269 270
222 221 220 220 218 220 223 226 231 237 243 249 252 260 262 265 263 268 271 272 268 270
226 225 226 225 225 227 229 233 237 241 247 252 256 260 260 262 261 263 265 265 267 269
229 228 228 230 230 232 236 239 243 246 248 251 254 256 257 255 258 259 261 264 265 266
228 228 227 228 231 233 236 239 243 245 247 249 251 255 257 256 257 260 264 267 271 271
229 230 230 230 232 236 236 238 240 245 248 251 253 257 262 262 262 263 267 273 280 272
231 234 236 238 240 240 242 245 248 251 255 259 264 265 266 266 265 264 267 264 278 276
237 239 240 243 247 250 252 255 257 262 265 262 265 271 275 273 271 268 268 270 274 277
245 246 247 251 252 258 259 263 263 261 263 264 261 263 272 270 277 276 270 272 278 281
243 247 250 249 248 250 254 255 259 262 263 265 256 257 248 249 269 270 274 279 283 290